TimeMDT,TemperatureF,Dew PointF,Humidity,Sea Level PressureIn,VisibilityMPH,Wind Direction,Wind SpeedMPH,Gust SpeedMPH,PrecipitationIn,Events,Conditions,WindDirDegrees,DateUTC
12:58 AM,74.8,30.4,20,29.92,10.0,NW,10.4,-,N/A,,Clear,310,2013-07-26 06:58:00
1:58 AM,70.3,32.7,25,29.94,10.0,NW,8.1,-,N/A,,Clear,310,2013-07-26 07:58:00
2:58 AM,72.0,30.4,21,29.94,10.0,NNW,8.1,-,N/A,,Clear,330,2013-07-26 08:58:00
3:58 AM,69.8,32.5,25,29.95,10.0,North,4.6,-,N/A,,Clear,360,2013-07-26 09:58:00
4:58 AM,67.8,31.6,26,29.96,10.0,West,5.8,-,N/A,,Clear,260,2013-07-26 10:58:00
5:58 AM,66.9,34.9,31,29.98,10.0,NW,3.5,-,N/A,,Clear,310,2013-07-26 11:58:00
6:58 AM,69.3,35.2,29,30.00,10.0,South,3.5,-,N/A,,Clear,190,2013-07-26 12:58:00
7:58 AM,72.0,36.7,28,30.00,10.0,NNE,6.9,-,N/A,,Clear,20,2013-07-26 13:58:00
8:58 AM,78.1,36.7,22,30.01,10.0,Variable,1.2,-,N/A,,Mostly Cloudy,0,2013-07-26 14:58:00
9:58 AM,82.4,36.0,19,30.02,10.0,Variable,5.8,-,N/A,,Partly Cloudy,0,2013-07-26 15:58:00
10:58 AM,84.7,36.5,18,30.03,10.0,WNW,3.5,-,N/A,,Partly Cloudy,290,2013-07-26 16:58:00
11:58 AM,90.1,35.4,14,30.02,10.0,North,2.3,-,N/A,,Partly Cloudy,350,2013-07-26 17:58:00
12:58 PM,93.0,36.0,13,30.01,10.0,West,5.8,-,N/A,,Mostly Cloudy,270,2013-07-26 18:58:00
1:58 PM,96.1,34.2,11,29.98,10.0,Variable,2.3,-,N/A,,Scattered Clouds,0,2013-07-26 19:58:00
2:58 PM,99.3,31.8,9,29.94,10.0,Variable,6.9,-,N/A,,Clear,0,2013-07-26 20:58:00
3:58 PM,100.6,29.8,8,29.92,10.0,WNW,8.1,-,N/A,,Clear,290,2013-07-26 21:58:00
4:58 PM,99.5,31.8,9,29.91,10.0,NW,6.9,-,N/A,,Partly Cloudy,310,2013-07-26 22:58:00
5:58 PM,95.7,37.2,13,29.91,10.0,West,19.6,-,N/A,,Mostly Cloudy,260,2013-07-26 23:58:00
6:58 PM,96.4,34.5,11,29.89,10.0,WNW,15.0,-,0.00,,Mostly Cloudy,290,2013-07-27 00:58:00
7:58 PM,95.2,35.6,12,29.86,10.0,WNW,8.1,-,N/A,,Mostly Cloudy,300,2013-07-27 01:58:00
8:58 PM,92.8,35.8,13,29.86,10.0,WNW,6.9,-,N/A,,Mostly Cloudy,300,2013-07-27 02:58:00
9:58 PM,89.1,34.9,15,29.86,10.0,NNW,9.2,-,N/A,,Mostly Cloudy,340,2013-07-27 03:58:00
10:58 PM,86.2,40.3,20,29.87,10.0,North,8.1,-,N/A,,Clear,360,2013-07-27 04:58:00
11:58 PM,83.7,41.0,22,29.88,10.0,NW,6.9,-,N/A,,Partly Cloudy,310,2013-07-27 05:58:00